AirNav   Air Wisconsin Up To $57,000 Bonus
 
 1047 users online  

F95 Calhoun County Airport
Blountstown, Florida, USA

GOING TO BLOUNTSTOWN?


FAA INFORMATION EFFECTIVE 09 SEPTEMBER 2021

Location

FAA Identifier: F95
Lat/Long: 30-29-13.3140N 085-06-49.6290W
30-29.221900N 085-06.827150W
30.4870317,-85.1137858
(estimated)
Elevation: 121.2 ft. / 37 m (estimated)
Variation: 02W (1995)
From city: 5 miles NW of BLOUNTSTOWN, FL
Time zone: UTC -5 (UTC -6 during Standard Time)
Zip code: 32421

Airport Operations

Airport use: Open to the public
Activation date: 12/1996
Control tower: no
ARTCC: JACKSONVILLE CENTER
FSS: GAINESVILLE FLIGHT SERVICE STATION
NOTAMs facility: GNV (NOTAM-D service available)
Attendance: MON-FRI 0700-1500
Wind indicator: lighted
Segmented circle: yes
Lights: ACTVT MIRL RWY 18/36 - CTAF.
Beacon: white-green (lighted land airport)
Operates sunset to sunrise.

Airport Communications

CTAF: 122.9
WX AWOS-AV: 119.350 (850-674-1347)

Nearby radio navigation aids

VOR radial/distance  VOR name  Freq  Var
MAIr178/18.0MARIANNA VORTAC114.0000E
SZWr262/38.5SEMINOLE VORTAC117.5002E

 
NDB name  Hdg/Dist  Freq  Var  ID
SOYYA168/23.832902WSMY ... -- -.--
LYNNE078/35.927804WPFN .--. ..-. -.

Airport Services

Fuel available: 100LL JET-A
Parking: hangars and tiedowns
Airframe service: MAJOR
Powerplant service: MAJOR
Bottled oxygen: NONE
Bulk oxygen: NONE

Runway Information

Runway 18/36

Dimensions: 3729 x 75 ft. / 1137 x 23 m
Surface: asphalt, in good condition
Weight bearing capacity: 
PCN 13 /F/A/Y/T
Runway edge lights: medium intensity
RUNWAY 18  RUNWAY 36
Latitude: 30-29.529452N30-28.914353N
Longitude: 085-06.827632W085-06.826655W
Elevation: 121.0 ft.118.0 ft.
Traffic pattern: leftleft
Runway heading: 182 magnetic, 180 true002 magnetic, 360 true
Displaced threshold: no129 ft.
Markings: nonprecision, in fair conditionnonprecision, in fair condition
Touchdown point: yes, no lightsyes, no lights
Obstructions: 68 ft. trees, 1547 ft. from runway, 40 ft. left of centerline, 20:1 slope to clear
APPROACH SLOPE 20:1 TO THE DSPLCD THLD DUE TO 88 FT TREE 185 FT L OF CNTRLN AND 1600 FT FRM RY END.
15 ft. road, 425 ft. from runway, 125 ft. right of centerline, 15:1 slope to clear

Airport Ownership and Management from official FAA records

Ownership: Publicly-owned
Owner: CALHOUN COUNTY
20589 CENTRAL AVENUE EAST
BLOUNTSTOWN, FL 32424
Phone 850-674-4545
Manager: SCOTT SNYDER
16701 AGRIPARK ROAD
ALTHA, FL 32421
Phone 850-674-2499
AIRPORT PHYSICAL ADDRESS: 16701 NORTHWEST AGRIPARK ROAD, ALTHA, FL 3241 850-674-2499 FAX: 850-674-1578.

Airport Operational Statistics

Aircraft based on the field: 9
Single engine airplanes: 9
    
Aircraft operations: avg 38/week *
50% transient general aviation
50% local general aviation
* for 12-month period ending 05 March 2018

Additional Remarks

FOR CD CTC TYNDALL APCH AT 850-283-2900 OR 850-283-3353, WHEN APCH CLSD CTC JACKSONVILLE ARTCC AT 904-845-1592.

Instrument Procedures

There are no published instrument procedures at F95.

Some nearby airports with instrument procedures:

KMAI - Marianna Municipal Airport (21 nm N)
2J9 - Quincy Municipal Airport (30 nm E)
1J0 - Tri-County Airport (33 nm NW)
17J - Donalsonville Municipal Airport (33 nm N)
KPAM - Tyndall Air Force Base (35 nm SW)
 
Loc | Ops | Rwys | IFR | FBO | Links
Com | Nav | Svcs | Stats | Notes
Area around F95 (Calhoun County Airport)
 
Road maps at: MapQuest Bing Google
 
Aerial photo
WARNING: Photo may not be current or correct
Aerial photo of F95 (Calhoun County Airport)
Photo by Brian Christopher
Photo taken 08-Aug-2010

Do you have a better or more recent aerial photo of Calhoun County Airport that you would like to share? If so, please send us your photo.

 
Sectional chart

 
Airport distance calculator
Flying to Calhoun County Airport? Find the distance to fly.

From to F95

Sunrise and sunset
Times for 25-Sep-2021
 Local
(UTC-5)
 Zulu
(UTC)
Morning civil twilight06:0711:07
Sunrise06:3111:31
Sunset18:3323:33
Evening civil twilight18:5723:57

Current date and time
Zulu (UTC)  25-Sep-2021 17:52:13
Local (UTC-5)  25-Sep-2021 12:52:13
 
METAR
KMAI 
21nm N 
251653Z AUTO 33005KT 10SM FEW039 27/17 A3007 RMK AO2 SLP181 T02720167
K2J9 
30nm E 
251735Z AUTO 06005KT 10SM FEW036 BKN045 28/19 A3007 RMK AO2
K1J0 
33nm NW 
251658Z AUTO VRB03KT 10SM CLR 28/16 A3008 RMK AO2 SLP145 T02830156
K17J 
33nm N 
251730Z AUTO 00000KT 10SM CLR 27/15 A3007 RMK AO2 T02660151
KTDR 
34nm SW 
251656Z AUTO 04004KT 10SM FEW075 28/21 A3004 RMK AO2 SLP176 T02790209 $
KPAM 
34nm SW 
251656Z AUTO 02004KT 10SM FEW029 28/19 A3006 RMK AO2 SLP182 T02760188 $
KECP 
36nm W 
251653Z 00000KT 10SM CLR 27/14 A3006 RMK AO2 SLP192 T02720139
KTLH 
40nm E 
251653Z 05004KT 10SM SCT047 SCT250 28/18 A3007 RMK AO2 SLP180 T02780183
TAF
KPAM 
34nm SW 
241900Z 2419/2601 36009KT 9999 SKC QNH3001INS BECMG 2504/2505 04006KT 9999 SKC QNH3002INS TX28/2519Z TN16/2511Z LAST NO AMDS AFT 2419 NEXT 2711
KECP 
36nm W 
251120Z 2512/2612 36004KT P6SM SKC
KTLH 
40nm E 
251120Z 2512/2612 VRB03KT P6SM FEW050 FM251500 36004KT P6SM SKC
NOTAMs
Click for the latest NOTAMs
NOTAMs are issued by the DoD/FAA and will open in a separate window not controlled by AirNav.

 

 
 

FBO, Fuel Providers, and Aircraft Ground Support

  
 Business Name 
 
 Contact 
 
 Services / Description 
 
Fuel Prices
 
Comments
  
Calhoun County Airport 850-674-2499
no information available

If you are affiliated with Calhoun County Airport and would like to show here your services, contact info, web link, logo, and more, click here
100LL Jet A
SS $3.99 $3.55 
 Updated 02-Sep-2021
 
   3 read write
SS=Self service
Update Fuel Prices
 

Would you like to see your business listed on this page?

 If your business provides an interesting product or service to pilots, flight crews, aircraft, or users of the Calhoun County Airport, you should consider listing it here.  To start the listing process, click on the button below
 
Add a business
 

Other Pages about Calhoun County Airport

Update a link
 
Copyright © AirNav, LLC. All rights reserved. Privacy Policy  Contact